AAL152 KDFW-KDAY

Flight info

Callsign AAL152
Flight time 1h 54m
Altitude 25000
Route AKUNA9 MLC SGF CROCK STL AXC BVT
Aircraft B77W/H-SDE1E2E3FGHIJ2J3J4J5M1RWXY/LB1D1

Departure

Time 2026-05-06 04:16
Airport Dallas Fort Worth International Airport (KDFW)

Arrival

Time 2026-05-06 06:11
Airport James M. Cox Dayton International Airport (KDAY)
Time Latitude Longitude Altitude Speed Heading
2026-05-06 03:46 32.89708 -97.03465 589 ft 0 kts 284°
2026-05-06 04:04 32.89708 -97.03462 589 ft 2 kts 284°
2026-05-06 04:04 32.89703 -97.03445 588 ft 2 kts 295°
2026-05-06 04:05 32.89696 -97.03429 588 ft 2 kts 306°
2026-05-06 04:05 32.89687 -97.03416 588 ft 2 kts 316°
2026-05-06 04:05 32.89675 -97.03404 588 ft 2 kts 326°
2026-05-06 04:05 32.89662 -97.03396 588 ft 2 kts 336°
2026-05-06 04:06 32.89648 -97.03390 587 ft 2 kts 347°
2026-05-06 04:06 32.89633 -97.03387 587 ft 2 kts 357°
2026-05-06 04:06 32.89626 -97.03386 587 ft 1 kts
2026-05-06 04:06 32.89625 -97.03387 587 ft 0 kts
2026-05-06 04:08 32.89627 -97.03386 587 ft 0 kts
2026-05-06 04:08 32.89637 -97.03382 587 ft 1 kts 34°
2026-05-06 04:08 32.89637 -97.03363 587 ft 4 kts 109°
2026-05-06 04:09 32.89601 -97.03329 586 ft 9 kts 158°
2026-05-06 04:09 32.89517 -97.03317 585 ft 13 kts 181°
2026-05-06 04:09 32.89409 -97.03319 584 ft 17 kts 180°
2026-05-06 04:09 32.89274 -97.03319 584 ft 21 kts 179°
2026-05-06 04:10 32.89178 -97.03318 584 ft 12 kts 180°
2026-05-06 04:10 32.89073 -97.03320 583 ft 18 kts 181°
2026-05-06 04:10 32.88948 -97.03320 581 ft 19 kts 179°
2026-05-06 04:10 32.88798 -97.03323 581 ft 23 kts 184°
2026-05-06 04:11 32.88665 -97.03335 581 ft 10 kts 176°
2026-05-06 04:11 32.88578 -97.03324 581 ft 14 kts 173°
2026-05-06 04:11 32.88503 -97.03265 581 ft 12 kts 105°
2026-05-06 04:11 32.88422 -97.03205 580 ft 17 kts 175°
2026-05-06 04:12 32.88294 -97.03203 577 ft 12 kts 180°
2026-05-06 04:12 32.88188 -97.03203 575 ft 16 kts 180°
2026-05-06 04:12 32.88068 -97.03203 574 ft 12 kts 180°
2026-05-06 04:12 32.87999 -97.03204 572 ft 10 kts 181°
2026-05-06 04:13 32.87957 -97.03204 572 ft 7 kts 181°
2026-05-06 04:13 32.87911 -97.03165 572 ft 7 kts 113°
2026-05-06 04:13 32.87906 -97.03138 572 ft 0 kts 93°
2026-05-06 04:14 32.87906 -97.03123 572 ft 3 kts 92°
2026-05-06 04:14 32.87904 -97.03075 572 ft 7 kts 91°
2026-05-06 04:14 32.87931 -97.03021 573 ft 8 kts 30°
2026-05-06 04:14 32.87972 -97.03011 574 ft 0 kts
2026-05-06 04:15 32.87974 -97.03011 574 ft 1 kts
2026-05-06 04:15 32.87999 -97.03010 575 ft 9 kts
2026-05-06 04:15 32.88200 -97.03008 575 ft 50 kts 359°
2026-05-06 04:15 32.88716 -97.03005 578 ft 97 kts 360°
2026-05-06 04:16 32.89543 -97.03001 579 ft 137 kts
2026-05-06 04:16 32.90602 -97.02997 622 ft 162 kts 360°
2026-05-06 04:16 32.91669 -97.02990 1114 ft 154 kts 360°
2026-05-06 04:16 32.92805 -97.02954 1637 ft 169 kts
2026-05-06 04:17 32.93915 -97.02792 2300 ft 164 kts
2026-05-06 04:17 32.95099 -97.02546 2602 ft 182 kts
2026-05-06 04:17 32.96394 -97.02453 3246 ft 188 kts 360°
2026-05-06 04:17 32.97746 -97.02407 3734 ft 206 kts
2026-05-06 04:18 32.99303 -97.02461 3866 ft 243 kts 354°
2026-05-06 04:18 33.01073 -97.02575 4217 ft 261 kts 358°
2026-05-06 04:18 33.02912 -97.02568 4827 ft 265 kts 358°
2026-05-06 04:18 33.04763 -97.02552 5408 ft 270 kts 359°
2026-05-06 04:19 33.06657 -97.02507 5935 ft 277 kts
2026-05-06 04:19 33.08577 -97.01994 6291 ft 292 kts 22°
2026-05-06 04:19 33.10448 -97.00975 6771 ft 298 kts 21°
2026-05-06 04:19 33.12371 -96.99990 7329 ft 302 kts 21°
2026-05-06 04:20 33.14294 -96.98965 7913 ft 304 kts 21°
2026-05-06 04:20 33.16209 -96.97942 8422 ft 308 kts 20°
2026-05-06 04:20 33.18183 -96.96882 8932 ft 312 kts 19°
2026-05-06 04:20 33.20174 -96.95808 9532 ft 316 kts 19°
2026-05-06 04:21 33.22195 -96.94716 10025 ft 315 kts 18°
2026-05-06 04:21 33.24203 -96.93632 10259 ft 322 kts 18°
2026-05-06 04:21 33.26291 -96.92517 10332 ft 341 kts 18°
2026-05-06 04:21 33.28539 -96.91304 10376 ft 359 kts 19°
2026-05-06 04:22 33.30855 -96.90050 10415 ft 376 kts 19°
2026-05-06 04:22 33.33310 -96.88721 10481 ft 391 kts 19°
2026-05-06 04:22 33.35786 -96.87372 10814 ft 397 kts 19°
2026-05-06 04:23 33.40862 -96.84610 11645 ft 402 kts 19°
2026-05-06 04:23 33.43402 -96.83225 12028 ft 405 kts 18°
2026-05-06 04:23 33.45948 -96.81792 12371 ft 411 kts 21°
2026-05-06 04:23 33.48490 -96.80134 12740 ft 413 kts 22°
2026-05-06 04:24 33.51026 -96.78513 13067 ft 417 kts 22°
2026-05-06 04:24 33.53600 -96.76860 13396 ft 421 kts 22°
2026-05-06 04:24 33.56202 -96.75192 13782 ft 423 kts 21°
2026-05-06 04:24 33.58794 -96.73528 14195 ft 424 kts 21°
2026-05-06 04:25 33.61405 -96.71854 14578 ft 426 kts 21°
2026-05-06 04:25 33.64017 -96.70180 14884 ft 430 kts 21°
2026-05-06 04:25 33.66671 -96.68471 15268 ft 432 kts 21°
2026-05-06 04:25 33.69311 -96.66772 15700 ft 432 kts 21°
2026-05-06 04:26 33.71965 -96.65063 16045 ft 435 kts 21°
2026-05-06 04:26 33.74642 -96.63339 16368 ft 438 kts 21°
2026-05-06 04:26 33.77356 -96.61588 16761 ft 439 kts 21°
2026-05-06 04:26 33.80041 -96.59856 17084 ft 442 kts 21°
2026-05-06 04:27 33.82740 -96.58114 17458 ft 443 kts 21°
2026-05-06 04:27 33.85470 -96.56349 17782 ft 445 kts 21°
2026-05-06 04:27 33.88194 -96.54589 18119 ft 447 kts 21°
2026-05-06 04:27 33.90970 -96.52789 18392 ft 450 kts 21°
2026-05-06 04:28 33.93728 -96.51006 18700 ft 452 kts 21°
2026-05-06 04:28 33.96487 -96.49213 19032 ft 454 kts 21°
2026-05-06 04:28 33.99299 -96.47395 19302 ft 457 kts 21°
2026-05-06 04:28 34.02083 -96.45588 19582 ft 459 kts 21°
2026-05-06 04:29 34.04886 -96.43763 19917 ft 460 kts 21°
2026-05-06 04:29 34.07677 -96.41763 20149 ft 468 kts 27°
2026-05-06 04:29 34.10363 -96.39571 20409 ft 470 kts 27°
2026-05-06 04:29 34.13119 -96.37354 20642 ft 473 kts 27°
2026-05-06 04:30 34.15836 -96.35141 20905 ft 475 kts 27°
2026-05-06 04:30 34.18589 -96.32906 21048 ft 480 kts 27°
2026-05-06 04:30 34.21346 -96.30654 21324 ft 480 kts 28°
2026-05-06 04:30 34.24104 -96.28399 21546 ft 482 kts 28°
2026-05-06 04:31 34.26915 -96.26105 21756 ft 484 kts 27°
2026-05-06 04:31 34.29693 -96.23827 22018 ft 485 kts 27°
2026-05-06 04:31 34.32501 -96.21532 22185 ft 488 kts 27°
2026-05-06 04:31 34.35320 -96.19223 22370 ft 490 kts 27°
2026-05-06 04:32 34.38126 -96.16920 22606 ft 491 kts 27°
2026-05-06 04:32 34.40978 -96.14577 22815 ft 493 kts 27°
2026-05-06 04:32 34.43818 -96.12251 22987 ft 496 kts 27°
2026-05-06 04:32 34.46668 -96.09902 23231 ft 496 kts 27°
2026-05-06 04:33 34.49527 -96.07553 23378 ft 499 kts 27°
2026-05-06 04:33 34.52398 -96.05185 23557 ft 501 kts 27°
2026-05-06 04:33 34.55290 -96.02810 23701 ft 504 kts 27°
2026-05-06 04:33 34.58172 -96.00423 24002 ft 503 kts 27°
2026-05-06 04:34 34.61099 -95.98015 24080 ft 508 kts 26°
2026-05-06 04:34 34.64014 -95.95600 24283 ft 509 kts 26°
2026-05-06 04:34 34.66942 -95.93182 24534 ft 510 kts 26°
2026-05-06 04:34 34.69873 -95.90757 24692 ft 512 kts 26°
2026-05-06 04:35 34.72801 -95.88329 24896 ft 513 kts 26°
2026-05-06 04:35 34.75755 -95.85883 24910 ft 517 kts 26°
2026-05-06 04:35 34.78729 -95.83421 24923 ft 523 kts 26°
2026-05-06 04:35 34.81775 -95.80885 24919 ft 528 kts 26°
2026-05-06 04:36 34.84803 -95.78374 24918 ft 533 kts 27°
2026-05-06 04:36 34.87751 -95.75652 24905 ft 521 kts 31°
2026-05-06 04:36 34.90537 -95.72990 24904 ft 504 kts 30°
2026-05-06 04:36 34.93309 -95.70406 24922 ft 508 kts 30°
2026-05-06 04:37 34.96125 -95.67758 24927 ft 514 kts 30°
2026-05-06 04:37 34.98981 -95.65067 24923 ft 519 kts 30°
2026-05-06 04:37 35.01802 -95.62409 24914 ft 519 kts 30°
2026-05-06 04:37 35.04654 -95.59717 24912 ft 518 kts 30°
2026-05-06 04:38 35.07511 -95.57024 24914 ft 516 kts 30°
2026-05-06 04:38 35.10352 -95.54340 24918 ft 516 kts 30°
2026-05-06 04:38 35.13195 -95.51652 24916 ft 515 kts 30°
2026-05-06 04:38 35.16021 -95.48981 24918 ft 514 kts 30°
2026-05-06 04:39 35.18833 -95.46318 24919 ft 514 kts 30°
2026-05-06 04:39 35.21670 -95.43627 24919 ft 515 kts 29°
2026-05-06 04:39 35.24489 -95.40955 24914 ft 517 kts 30°
2026-05-06 04:39 35.27332 -95.38258 24914 ft 513 kts 30°
2026-05-06 04:40 35.30134 -95.35593 24926 ft 516 kts 30°
2026-05-06 04:40 35.32970 -95.32893 24906 ft 515 kts 30°
2026-05-06 04:40 35.35811 -95.30193 24909 ft 516 kts 30°
2026-05-06 04:40 35.38598 -95.27528 24902 ft 513 kts 30°
2026-05-06 04:41 35.41444 -95.24819 24914 ft 516 kts 30°
2026-05-06 04:41 35.44233 -95.22158 24914 ft 515 kts 30°
2026-05-06 04:41 35.47086 -95.19430 24913 ft 516 kts 30°
2026-05-06 04:41 35.49875 -95.16760 24904 ft 511 kts 30°
2026-05-06 04:42 35.52699 -95.14062 24912 ft 516 kts 30°
2026-05-06 04:42 35.55529 -95.11350 24908 ft 513 kts 30°
2026-05-06 04:42 35.58329 -95.08656 24916 ft 514 kts 30°
2026-05-06 04:42 35.61147 -95.05960 24917 ft 513 kts 30°
2026-05-06 04:43 35.63946 -95.03265 24914 ft 513 kts 30°
2026-05-06 04:43 35.66746 -95.00574 24916 ft 513 kts 30°
2026-05-06 04:43 35.69575 -94.97854 24912 ft 514 kts 30°
2026-05-06 04:43 35.72353 -94.95176 24910 ft 509 kts 30°
2026-05-06 04:44 35.75145 -94.92480 24919 ft 512 kts 30°
2026-05-06 04:44 35.77956 -94.89770 24923 ft 513 kts 30°
2026-05-06 04:44 35.80769 -94.87050 24920 ft 511 kts 30°
2026-05-06 04:44 35.83569 -94.84341 24916 ft 510 kts 30°
2026-05-06 04:45 35.86343 -94.81660 24921 ft 513 kts 30°
2026-05-06 04:45 35.89134 -94.78954 24913 ft 507 kts 30°
2026-05-06 04:45 35.91916 -94.76257 24935 ft 511 kts 30°
2026-05-06 04:45 35.94733 -94.73526 24931 ft 514 kts 30°
2026-05-06 04:46 35.97525 -94.70812 24931 ft 513 kts 30°
2026-05-06 04:46 36.00312 -94.68099 24929 ft 513 kts 30°
2026-05-06 04:46 36.03093 -94.65389 24932 ft 509 kts 30°
2026-05-06 04:46 36.05884 -94.62674 24936 ft 510 kts 30°
2026-05-06 04:47 36.08693 -94.59935 24938 ft 509 kts 30°
2026-05-06 04:47 36.11437 -94.57256 24946 ft 510 kts 30°
2026-05-06 04:47 36.14225 -94.54534 24949 ft 511 kts 30°
2026-05-06 04:47 36.17021 -94.51798 24949 ft 510 kts 30°
2026-05-06 04:48 36.19801 -94.49085 24944 ft 510 kts 30°
2026-05-06 04:48 36.22537 -94.46397 24944 ft 509 kts 31°
2026-05-06 04:48 36.25312 -94.43677 24949 ft 509 kts 30°
2026-05-06 04:48 36.28087 -94.40951 24952 ft 508 kts 30°
2026-05-06 04:49 36.30886 -94.38206 24954 ft 509 kts 30°
2026-05-06 04:49 36.33626 -94.35503 24951 ft 507 kts 30°
2026-05-06 04:49 36.36432 -94.32752 24929 ft 505 kts 31°
2026-05-06 04:49 36.39169 -94.30049 24936 ft 506 kts 31°
2026-05-06 04:50 36.41931 -94.27331 24955 ft 510 kts 31°
2026-05-06 04:50 36.44691 -94.24608 24935 ft 510 kts 31°
2026-05-06 04:50 36.47455 -94.21867 24930 ft 505 kts 31°
2026-05-06 04:50 36.50192 -94.19164 24956 ft 508 kts 31°
2026-05-06 04:51 36.52983 -94.16409 24936 ft 506 kts 31°
2026-05-06 04:51 36.55733 -94.13680 24928 ft 507 kts 31°
2026-05-06 04:51 36.58460 -94.10975 24930 ft 510 kts 31°
2026-05-06 04:51 36.61242 -94.08213 24928 ft 505 kts 31°
2026-05-06 04:52 36.63986 -94.05489 24930 ft 507 kts 31°
2026-05-06 04:52 36.66735 -94.02749 24925 ft 505 kts 31°
2026-05-06 04:52 36.69488 -94.00012 24928 ft 506 kts 31°
2026-05-06 04:52 36.72234 -93.97282 24938 ft 509 kts 31°
2026-05-06 04:53 36.74987 -93.94531 24928 ft 505 kts 31°
2026-05-06 04:53 36.77699 -93.91821 24940 ft 506 kts 31°
2026-05-06 04:53 36.80462 -93.89064 24941 ft 506 kts 31°
2026-05-06 04:53 36.83192 -93.86333 24933 ft 503 kts 31°
2026-05-06 04:54 36.85912 -93.83614 24952 ft 507 kts 31°
2026-05-06 04:54 36.88665 -93.80853 24939 ft 506 kts 31°
2026-05-06 04:54 36.91378 -93.78135 24936 ft 503 kts 31°
2026-05-06 04:54 36.94132 -93.75369 24945 ft 506 kts 31°
2026-05-06 04:55 36.96854 -93.72630 24933 ft 506 kts 31°
2026-05-06 04:55 36.99598 -93.69872 24940 ft 504 kts 31°
2026-05-06 04:55 37.02311 -93.67140 24939 ft 506 kts 31°
2026-05-06 04:55 37.05022 -93.64407 24940 ft 501 kts 31°
2026-05-06 04:56 37.07751 -93.61655 24942 ft 505 kts 31°
2026-05-06 04:56 37.10495 -93.58890 24948 ft 504 kts 31°
2026-05-06 04:56 37.13209 -93.56141 24940 ft 501 kts 31°
2026-05-06 04:56 37.15908 -93.53416 24956 ft 505 kts 31°
2026-05-06 04:57 37.18654 -93.50635 24956 ft 506 kts 31°
2026-05-06 04:57 37.21388 -93.47863 24954 ft 505 kts 31°
2026-05-06 04:57 37.24120 -93.45090 24964 ft 510 kts 32°
2026-05-06 04:57 37.26884 -93.42291 24964 ft 515 kts 32°
2026-05-06 04:58 37.29697 -93.39431 24965 ft 521 kts 32°
2026-05-06 04:58 37.32503 -93.36562 24965 ft 526 kts 33°
2026-05-06 04:58 37.35140 -93.33436 24931 ft 518 kts 42°
2026-05-06 04:58 37.37348 -93.29969 24917 ft 507 kts 49°
2026-05-06 04:59 37.39418 -93.26360 24947 ft 510 kts 50°
2026-05-06 04:59 37.41487 -93.22675 24948 ft 515 kts 51°
2026-05-06 04:59 37.43536 -93.18963 24943 ft 520 kts 51°
2026-05-06 04:59 37.45597 -93.15214 24944 ft 524 kts 51°
2026-05-06 05:00 37.47644 -93.11480 24934 ft 523 kts 51°
2026-05-06 05:00 37.49703 -93.07725 24947 ft 522 kts 51°
2026-05-06 05:00 37.51733 -93.03996 24936 ft 522 kts 51°
2026-05-06 05:00 37.53794 -93.00217 24944 ft 524 kts 51°
2026-05-06 05:01 37.55880 -92.96401 24940 ft 521 kts 51°
2026-05-06 05:01 37.57905 -92.92684 24936 ft 523 kts 51°
2026-05-06 05:01 37.59958 -92.88905 24945 ft 525 kts 51°
2026-05-06 05:01 37.62027 -92.85098 24952 ft 527 kts 51°
2026-05-06 05:02 37.64098 -92.81266 24950 ft 520 kts 52°
2026-05-06 05:02 37.66118 -92.77549 24964 ft 522 kts 51°
2026-05-06 05:02 37.68172 -92.73755 24964 ft 526 kts 51°
2026-05-06 05:02 37.70248 -92.69921 24962 ft 522 kts 51°
2026-05-06 05:03 37.72288 -92.66135 24977 ft 523 kts 51°
2026-05-06 05:03 37.74337 -92.62350 24978 ft 527 kts 52°
2026-05-06 05:03 37.76405 -92.58511 24971 ft 528 kts 52°
2026-05-06 05:03 37.78442 -92.54717 24974 ft 525 kts 52°
2026-05-06 05:04 37.80471 -92.50941 24970 ft 525 kts 52°
2026-05-06 05:04 37.82547 -92.47087 24968 ft 526 kts 52°
2026-05-06 05:04 37.84584 -92.43271 24961 ft 521 kts 52°
2026-05-06 05:04 37.86626 -92.39474 24973 ft 526 kts 51°
2026-05-06 05:05 37.88682 -92.35637 24977 ft 532 kts 52°
2026-05-06 05:05 37.90761 -92.31742 24957 ft 537 kts 52°
2026-05-06 05:05 37.92857 -92.27826 24959 ft 542 kts 52°
2026-05-06 05:05 37.94981 -92.23846 24958 ft 547 kts 53°
2026-05-06 05:06 37.97107 -92.19849 24961 ft 550 kts 52°
2026-05-06 05:06 37.99189 -92.15918 24941 ft 528 kts 52°
2026-05-06 05:06 38.01189 -92.12144 24937 ft 512 kts 52°
2026-05-06 05:06 38.03182 -92.08399 24982 ft 516 kts 52°
2026-05-06 05:07 38.05187 -92.04626 24972 ft 521 kts 52°
2026-05-06 05:07 38.07212 -92.00799 24982 ft 526 kts 52°
2026-05-06 05:07 38.09246 -91.96961 24972 ft 528 kts 52°
2026-05-06 05:07 38.11290 -91.93085 24980 ft 527 kts 52°
2026-05-06 05:08 38.13316 -91.89236 24962 ft 525 kts 52°
2026-05-06 05:08 38.15346 -91.85395 24969 ft 525 kts 52°
2026-05-06 05:08 38.17365 -91.81553 24979 ft 524 kts 52°
2026-05-06 05:08 38.19386 -91.77713 24972 ft 523 kts 52°
2026-05-06 05:09 38.21402 -91.73874 24973 ft 524 kts 52°
2026-05-06 05:09 38.23416 -91.70022 24978 ft 524 kts 52°
2026-05-06 05:09 38.25431 -91.66188 24958 ft 523 kts 52°
2026-05-06 05:09 38.27434 -91.62357 24975 ft 521 kts 52°
2026-05-06 05:10 38.29449 -91.58509 24966 ft 524 kts 52°
2026-05-06 05:10 38.31444 -91.54678 24953 ft 521 kts 52°
2026-05-06 05:10 38.33461 -91.50826 24971 ft 524 kts 52°
2026-05-06 05:10 38.35458 -91.46973 24966 ft 519 kts 52°
2026-05-06 05:11 38.37437 -91.43163 24972 ft 518 kts 52°
2026-05-06 05:11 38.39437 -91.39340 24966 ft 524 kts 52°
2026-05-06 05:11 38.41428 -91.35484 24959 ft 517 kts 52°
2026-05-06 05:11 38.43402 -91.31677 24948 ft 520 kts 53°
2026-05-06 05:12 38.45393 -91.27839 24947 ft 518 kts 52°
2026-05-06 05:12 38.47388 -91.23975 24957 ft 521 kts 52°
2026-05-06 05:12 38.49386 -91.20116 24948 ft 518 kts 53°
2026-05-06 05:12 38.51364 -91.16274 24954 ft 519 kts 53°
2026-05-06 05:13 38.53344 -91.12446 24952 ft 519 kts 53°
2026-05-06 05:13 38.55336 -91.08558 24963 ft 517 kts 52°
2026-05-06 05:13 38.57294 -91.04752 24962 ft 519 kts 52°
2026-05-06 05:13 38.59292 -91.00865 24974 ft 521 kts 53°
2026-05-06 05:14 38.61279 -90.97006 24968 ft 522 kts 53°
2026-05-06 05:14 38.63235 -90.93166 24962 ft 518 kts 52°
2026-05-06 05:14 38.65194 -90.89343 24962 ft 519 kts 52°
2026-05-06 05:14 38.67172 -90.85477 24966 ft 522 kts 53°
2026-05-06 05:15 38.69162 -90.81580 24967 ft 522 kts 53°
2026-05-06 05:15 38.71131 -90.77715 24967 ft 523 kts 52°
2026-05-06 05:15 38.73120 -90.73808 24958 ft 520 kts 52°
2026-05-06 05:15 38.75083 -90.69943 24964 ft 519 kts 53°
2026-05-06 05:16 38.77050 -90.66088 24970 ft 524 kts 52°
2026-05-06 05:16 38.79043 -90.62135 24973 ft 528 kts 53°
2026-05-06 05:16 38.81053 -90.58183 24971 ft 534 kts 53°
2026-05-06 05:16 38.83087 -90.54176 24970 ft 539 kts 53°
2026-05-06 05:17 38.85130 -90.50133 24966 ft 543 kts 53°
2026-05-06 05:17 38.87219 -90.46128 24967 ft 534 kts 50°
2026-05-06 05:17 38.89310 -90.42374 24946 ft 510 kts 49°
2026-05-06 05:17 38.91336 -90.38702 24965 ft 505 kts 49°
2026-05-06 05:18 38.93373 -90.35015 24989 ft 509 kts 49°
2026-05-06 05:18 38.95445 -90.31258 24951 ft 514 kts 50°
2026-05-06 05:18 38.97514 -90.27518 24957 ft 519 kts 50°
2026-05-06 05:18 38.99577 -90.23740 24963 ft 521 kts 50°
2026-05-06 05:19 39.01669 -90.19924 24954 ft 520 kts 50°
2026-05-06 05:19 39.03758 -90.16119 24957 ft 522 kts 50°
2026-05-06 05:19 39.05832 -90.12326 24960 ft 519 kts 50°
2026-05-06 05:19 39.07923 -90.08511 24957 ft 516 kts 50°
2026-05-06 05:20 39.09975 -90.04742 24963 ft 518 kts 51°
2026-05-06 05:20 39.12049 -90.00955 24961 ft 523 kts 51°
2026-05-06 05:20 39.14117 -89.97134 24952 ft 520 kts 50°
2026-05-06 05:20 39.16195 -89.93330 24956 ft 521 kts 50°
2026-05-06 05:21 39.18281 -89.89478 24950 ft 519 kts 50°
2026-05-06 05:21 39.20338 -89.85692 24956 ft 519 kts 50°
2026-05-06 05:21 39.22407 -89.81885 24957 ft 521 kts 51°
2026-05-06 05:21 39.24468 -89.78079 24956 ft 521 kts 50°
2026-05-06 05:22 39.26539 -89.74238 24955 ft 522 kts 50°
2026-05-06 05:22 39.28598 -89.70423 24956 ft 519 kts 50°
2026-05-06 05:22 39.30649 -89.66625 24943 ft 518 kts 50°
2026-05-06 05:22 39.32724 -89.62778 24951 ft 520 kts 51°
2026-05-06 05:23 39.34766 -89.58984 24957 ft 518 kts 51°
2026-05-06 05:23 39.36836 -89.55147 24944 ft 517 kts 51°
2026-05-06 05:23 39.40911 -89.47530 24947 ft 518 kts 51°
2026-05-06 05:24 39.42975 -89.43684 24957 ft 517 kts 51°
2026-05-06 05:24 39.45016 -89.39880 24951 ft 518 kts 51°
2026-05-06 05:24 39.47046 -89.36076 24953 ft 519 kts 51°
2026-05-06 05:24 39.49100 -89.32227 24939 ft 520 kts 51°
2026-05-06 05:25 39.51140 -89.28384 24934 ft 516 kts 52°
2026-05-06 05:25 39.53172 -89.24588 24942 ft 518 kts 52°
2026-05-06 05:25 39.55197 -89.20778 24939 ft 517 kts 52°
2026-05-06 05:25 39.57247 -89.16910 24945 ft 514 kts 52°
2026-05-06 05:26 39.59257 -89.13113 24940 ft 516 kts 52°
2026-05-06 05:26 39.61294 -89.09281 24933 ft 516 kts 52°
2026-05-06 05:26 39.63320 -89.05441 24929 ft 519 kts 51°
2026-05-06 05:26 39.65355 -89.01611 24940 ft 523 kts 52°
2026-05-06 05:27 39.67433 -88.97665 24932 ft 528 kts 52°
2026-05-06 05:27 39.69505 -88.93742 24932 ft 533 kts 52°
2026-05-06 05:27 39.71585 -88.89791 24930 ft 537 kts 52°
2026-05-06 05:27 39.73692 -88.85774 24929 ft 537 kts 53°
2026-05-06 05:28 39.75619 -88.81738 24920 ft 518 kts 56°
2026-05-06 05:28 39.77454 -88.77801 24916 ft 503 kts 56°
2026-05-06 05:28 39.79269 -88.73954 24936 ft 503 kts 56°
2026-05-06 05:28 39.81103 -88.70036 24940 ft 507 kts 55°
2026-05-06 05:29 39.82942 -88.66099 24940 ft 512 kts 55°
2026-05-06 05:29 39.84800 -88.62151 24936 ft 517 kts 56°
2026-05-06 05:29 39.86632 -88.58219 24919 ft 507 kts 55°
2026-05-06 05:29 39.88471 -88.54284 24937 ft 511 kts 56°
2026-05-06 05:30 39.90307 -88.50348 24933 ft 513 kts 55°
2026-05-06 05:30 39.92148 -88.46396 24928 ft 513 kts 56°
2026-05-06 05:30 39.94004 -88.42401 24934 ft 510 kts 56°
2026-05-06 05:30 39.95840 -88.38459 24921 ft 511 kts 56°
2026-05-06 05:31 39.97679 -88.34493 24949 ft 510 kts 57°
2026-05-06 05:31 39.99501 -88.30559 24917 ft 510 kts 57°
2026-05-06 05:31 40.01338 -88.26592 24918 ft 509 kts 57°
2026-05-06 05:31 40.03163 -88.22643 24935 ft 513 kts 56°
2026-05-06 05:32 40.04984 -88.18693 24921 ft 512 kts 57°
2026-05-06 05:32 40.06821 -88.14719 24919 ft 512 kts 57°
2026-05-06 05:32 40.08640 -88.10757 24924 ft 509 kts 57°
2026-05-06 05:32 40.10471 -88.06791 24923 ft 511 kts 57°
2026-05-06 05:33 40.12293 -88.02817 24915 ft 509 kts 57°
2026-05-06 05:33 40.14098 -87.98869 24924 ft 510 kts 57°
2026-05-06 05:33 40.15944 -87.94855 24926 ft 512 kts 57°
2026-05-06 05:33 40.17768 -87.90870 24908 ft 514 kts 57°
2026-05-06 05:34 40.19568 -87.86924 24909 ft 504 kts 57°
2026-05-06 05:34 40.21361 -87.82985 24923 ft 509 kts 57°
2026-05-06 05:34 40.23199 -87.78973 24926 ft 513 kts 57°
2026-05-06 05:34 40.25006 -87.75002 24907 ft 515 kts 57°
2026-05-06 05:35 40.26815 -87.71009 24917 ft 511 kts 57°
2026-05-06 05:35 40.28656 -87.66962 24917 ft 511 kts 57°
2026-05-06 05:35 40.30451 -87.63000 24921 ft 510 kts 57°
2026-05-06 05:35 40.32270 -87.58984 24920 ft 512 kts 57°
2026-05-06 05:36 40.34087 -87.54967 24918 ft 513 kts 57°
2026-05-06 05:36 40.35878 -87.51002 24913 ft 512 kts 57°
2026-05-06 05:36 40.37700 -87.46971 24918 ft 513 kts 57°
2026-05-06 05:36 40.39486 -87.43001 24904 ft 512 kts 57°
2026-05-06 05:37 40.41300 -87.38960 24913 ft 511 kts 57°
2026-05-06 05:37 40.43103 -87.34963 24904 ft 512 kts 58°
2026-05-06 05:37 40.44913 -87.30920 24897 ft 510 kts 58°
2026-05-06 05:37 40.46697 -87.26943 24893 ft 510 kts 58°
2026-05-06 05:38 40.48517 -87.22879 24902 ft 515 kts 58°
2026-05-06 05:38 40.50297 -87.18821 24896 ft 518 kts 61°
2026-05-06 05:38 40.51752 -87.14519 24889 ft 515 kts 70°
2026-05-06 05:38 40.52696 -87.10032 24894 ft 511 kts 80°
2026-05-06 05:39 40.53127 -87.05432 24897 ft 509 kts 89°
2026-05-06 05:39 40.53326 -87.00835 24909 ft 509 kts 89°
2026-05-06 05:39 40.53540 -86.96201 24892 ft 508 kts 89°
2026-05-06 05:39 40.53759 -86.91570 24910 ft 509 kts 89°
2026-05-06 05:40 40.53978 -86.86974 24886 ft 507 kts 89°
2026-05-06 05:40 40.54190 -86.82321 24895 ft 509 kts 89°
2026-05-06 05:40 40.54417 -86.77661 24912 ft 511 kts 88°
2026-05-06 05:40 40.54637 -86.73076 24892 ft 507 kts 88°
2026-05-06 05:41 40.54860 -86.68495 24907 ft 508 kts 89°
2026-05-06 05:41 40.55095 -86.63837 24909 ft 507 kts 88°
2026-05-06 05:41 40.55321 -86.59267 24905 ft 507 kts 88°
2026-05-06 05:41 40.55611 -86.54600 24879 ft 510 kts 88°
2026-05-06 05:42 40.55577 -86.50034 24880 ft 498 kts 100°
2026-05-06 05:42 40.54974 -86.45560 24914 ft 496 kts 108°
2026-05-06 05:42 40.54147 -86.41166 24930 ft 498 kts 108°
2026-05-06 05:42 40.52969 -86.36957 24884 ft 492 kts 118°
2026-05-06 05:43 40.51644 -86.32851 24903 ft 490 kts 118°
2026-05-06 05:43 40.50278 -86.28741 24881 ft 490 kts 119°
2026-05-06 05:43 40.48920 -86.24670 24888 ft 491 kts 119°
2026-05-06 05:43 40.47581 -86.20609 24870 ft 488 kts 118°
2026-05-06 05:44 40.46315 -86.16492 24892 ft 492 kts 114°
2026-05-06 05:44 40.45258 -86.12157 24730 ft 495 kts 113°
2026-05-06 05:44 40.44144 -86.07979 24280 ft 481 kts 115°
2026-05-06 05:44 40.43025 -86.03937 23864 ft 466 kts 115°
2026-05-06 05:45 40.41933 -86.00005 23449 ft 452 kts 115°
2026-05-06 05:45 40.40844 -85.96249 23063 ft 437 kts 118°
2026-05-06 05:45 40.39635 -85.92637 22690 ft 421 kts 122°
2026-05-06 05:45 40.38398 -85.89349 22010 ft 393 kts 122°
2026-05-06 05:46 40.37285 -85.86238 21632 ft 361 kts 122°
2026-05-06 05:46 40.36301 -85.83358 21428 ft 338 kts 121°
2026-05-06 05:46 40.35361 -85.80589 21190 ft 330 kts 122°
2026-05-06 05:46 40.34450 -85.77851 20913 ft 323 kts 121°
2026-05-06 05:47 40.33575 -85.75192 20635 ft 316 kts 122°
2026-05-06 05:47 40.32675 -85.72630 20374 ft 308 kts 123°
2026-05-06 05:47 40.31783 -85.70091 20115 ft 302 kts 123°
2026-05-06 05:47 40.30920 -85.67620 19866 ft 302 kts 123°
2026-05-06 05:48 40.30039 -85.65088 19639 ft 303 kts 123°
2026-05-06 05:48 40.29167 -85.62614 19390 ft 300 kts 123°
2026-05-06 05:48 40.28310 -85.60137 19138 ft 296 kts 123°
2026-05-06 05:48 40.27463 -85.57692 18903 ft 298 kts 123°
2026-05-06 05:49 40.26611 -85.55233 18660 ft 296 kts 123°
2026-05-06 05:49 40.25771 -85.52794 18432 ft 293 kts 123°
2026-05-06 05:49 40.24936 -85.50372 18184 ft 290 kts 123°
2026-05-06 05:49 40.24117 -85.47993 17944 ft 289 kts 123°
2026-05-06 05:50 40.23293 -85.45609 17695 ft 288 kts 123°
2026-05-06 05:50 40.22476 -85.43211 17441 ft 287 kts 122°
2026-05-06 05:50 40.21669 -85.40855 17185 ft 287 kts 122°
2026-05-06 05:50 40.20851 -85.38477 16942 ft 286 kts 123°
2026-05-06 05:51 40.20038 -85.36116 16679 ft 284 kts 123°
2026-05-06 05:51 40.19231 -85.33755 16418 ft 282 kts 123°
2026-05-06 05:51 40.18436 -85.31448 16139 ft 279 kts 124°
2026-05-06 05:51 40.17645 -85.29130 15882 ft 280 kts 123°
2026-05-06 05:52 40.16853 -85.26811 15625 ft 280 kts 123°
2026-05-06 05:52 40.16060 -85.24489 15342 ft 278 kts 123°
2026-05-06 05:52 40.15288 -85.22205 15060 ft 276 kts 123°
2026-05-06 05:52 40.14508 -85.19930 14786 ft 275 kts 124°
2026-05-06 05:53 40.13741 -85.17645 14497 ft 273 kts 123°
2026-05-06 05:53 40.12994 -85.15393 14196 ft 272 kts 123°
2026-05-06 05:53 40.12233 -85.13134 13924 ft 270 kts 123°
2026-05-06 05:53 40.11474 -85.10886 13621 ft 270 kts 124°
2026-05-06 05:54 40.11086 -85.09725 13487 ft 269 kts 123°
2026-05-06 05:54 40.10681 -85.08543 12873 ft 267 kts 123°
2026-05-06 05:54 40.09908 -85.06377 12620 ft 264 kts 123°
2026-05-06 05:54 40.09122 -85.04202 12359 ft 263 kts 123°
2026-05-06 05:55 40.08333 -85.02042 12107 ft 262 kts 123°
2026-05-06 05:55 40.07557 -84.99927 11920 ft 259 kts 123°
2026-05-06 05:55 40.06773 -84.97809 11777 ft 258 kts 123°
2026-05-06 05:55 40.06003 -84.95725 11624 ft 257 kts 123°
2026-05-06 05:56 40.05236 -84.93629 11436 ft 255 kts 123°
2026-05-06 05:56 40.04481 -84.91532 11137 ft 254 kts 124°
2026-05-06 05:56 40.03749 -84.89466 10853 ft 251 kts 123°
2026-05-06 05:56 40.03019 -84.87392 10536 ft 249 kts 123°
2026-05-06 05:57 40.02298 -84.85371 10256 ft 247 kts 123°
2026-05-06 05:57 40.01572 -84.83342 9965 ft 245 kts 122°
2026-05-06 05:57 40.00848 -84.81340 9664 ft 243 kts 123°
2026-05-06 05:57 40.00122 -84.79397 9374 ft 240 kts 123°
2026-05-06 05:58 39.99400 -84.77441 9074 ft 238 kts 121°
2026-05-06 05:58 39.98719 -84.75481 8781 ft 236 kts 121°
2026-05-06 05:58 39.97976 -84.73589 8463 ft 232 kts 127°
2026-05-06 05:58 39.97141 -84.71834 8166 ft 228 kts 127°
2026-05-06 05:59 39.96308 -84.70088 7904 ft 225 kts 129°
2026-05-06 05:59 39.95402 -84.68446 7636 ft 220 kts 134°
2026-05-06 05:59 39.94391 -84.66988 7371 ft 215 kts 141°
2026-05-06 05:59 39.93274 -84.65723 7124 ft 208 kts 151°
2026-05-06 06:00 39.92039 -84.64805 6856 ft 204 kts 155°
2026-05-06 06:00 39.90829 -84.63879 6644 ft 202 kts 155°
2026-05-06 06:00 39.89563 -84.63052 6434 ft 203 kts 158°
2026-05-06 06:00 39.88285 -84.62284 6263 ft 197 kts 158°
2026-05-06 06:01 39.87068 -84.61549 6054 ft 192 kts 159°
2026-05-06 06:01 39.85842 -84.60889 5861 ft 187 kts 161°
2026-05-06 06:01 39.84646 -84.60192 5738 ft 190 kts 157°
2026-05-06 06:01 39.83447 -84.59450 5594 ft 191 kts 157°
2026-05-06 06:02 39.82253 -84.58705 5466 ft 193 kts 157°
2026-05-06 06:02 39.81038 -84.57968 5332 ft 189 kts 158°
2026-05-06 06:02 39.79845 -84.57233 5085 ft 191 kts 158°
2026-05-06 06:02 39.78637 -84.56509 4794 ft 193 kts 158°
2026-05-06 06:03 39.77399 -84.55798 4500 ft 194 kts 157°
2026-05-06 06:03 39.76170 -84.55083 4190 ft 196 kts 153°
2026-05-06 06:03 39.75034 -84.54102 3867 ft 196 kts 123°
2026-05-06 06:03 39.74608 -84.52538 3597 ft 182 kts 87°
2026-05-06 06:04 39.74718 -84.50932 3337 ft 177 kts 75°
2026-05-06 06:04 39.74835 -84.49371 3207 ft 167 kts 74°
2026-05-06 06:04 39.75132 -84.47943 3286 ft 162 kts 65°
2026-05-06 06:04 39.75584 -84.46587 3397 ft 166 kts 45°
2026-05-06 06:05 39.76451 -84.45626 3519 ft 164 kts 33°
2026-05-06 06:05 39.77354 -84.44679 3467 ft 165 kts 38°
2026-05-06 06:05 39.78135 -84.43618 3425 ft 167 kts 46°
2026-05-06 06:05 39.78848 -84.42384 3257 ft 171 kts 48°
2026-05-06 06:06 39.79533 -84.41151 3038 ft 168 kts 48°
2026-05-06 06:06 39.80240 -84.39948 2798 ft 165 kts 46°
2026-05-06 06:06 39.80937 -84.38811 2663 ft 156 kts 46°
2026-05-06 06:06 39.81620 -84.37709 2678 ft 159 kts 46°
2026-05-06 06:07 39.82304 -84.36603 2668 ft 157 kts 46°
2026-05-06 06:07 39.82962 -84.35526 2769 ft 151 kts 46°
2026-05-06 06:07 39.83632 -84.34474 2836 ft 148 kts 41°
2026-05-06 06:07 39.84460 -84.33499 2684 ft 162 kts 41°
2026-05-06 06:08 39.85160 -84.32439 2447 ft 151 kts 47°
2026-05-06 06:08 39.85802 -84.31365 2259 ft 146 kts 48°
2026-05-06 06:08 39.86409 -84.30298 1984 ft 150 kts 52°
2026-05-06 06:08 39.87013 -84.29147 1721 ft 156 kts 52°
2026-05-06 06:09 39.87647 -84.28018 1492 ft 157 kts 51°
2026-05-06 06:09 39.88282 -84.26891 1241 ft 150 kts 52°
2026-05-06 06:09 39.88854 -84.25803 1082 ft 141 kts 52°
2026-05-06 06:09 39.89409 -84.24796 1038 ft 134 kts 53°
2026-05-06 06:10 39.89928 -84.23842 1008 ft 116 kts 56°
2026-05-06 06:10 39.90313 -84.23114 1007 ft 77 kts 56°
2026-05-06 06:10 39.90587 -84.22599 1008 ft 68 kts 54°
2026-05-06 06:10 39.90845 -84.22114 1010 ft 63 kts 55°
2026-05-06 06:11 39.91052 -84.21719 1010 ft 33 kts 54°
2026-05-06 06:11 39.91135 -84.21564 1010 ft 18 kts 56°
2026-05-06 06:11 39.91180 -84.21476 1009 ft 12 kts 65°
2026-05-06 06:11 39.91156 -84.21378 1007 ft 9 kts 136°
2026-05-06 06:12 39.91145 -84.21366 1007 ft 3 kts 141°
2026-05-06 06:12 39.91113 -84.21343 1007 ft 6 kts 162°
2026-05-06 06:12 39.91053 -84.21327 1008 ft 10 kts 174°
2026-05-06 06:12 39.90997 -84.21323 1009 ft 9 kts 179°
2026-05-06 06:13 39.90916 -84.21323 1010 ft 13 kts 180°
2026-05-06 06:13 39.90893 -84.21323 1010 ft 3 kts 179°
2026-05-06 06:13 39.90859 -84.21322 1010 ft 3 kts 179°
2026-05-06 06:13 39.90817 -84.21320 1010 ft 3 kts 180°
2026-05-06 06:14 39.90807 -84.21323 1010 ft 2 kts 197°
2026-05-06 06:14 39.90787 -84.21342 1011 ft 3 kts 227°
2026-05-06 06:14 39.90774 -84.21378 1011 ft 6 kts 254°
2026-05-06 06:14 39.90764 -84.21466 1011 ft 13 kts 266°
2026-05-06 06:15 39.90779 -84.21600 1011 ft 14 kts 294°
2026-05-06 06:15 39.90821 -84.21680 1010 ft 11 kts 300°
2026-05-06 06:15 39.90800 -84.21780 1013 ft 12 kts 253°
2026-05-06 06:15 39.90786 -84.21908 1011 ft 16 kts 250°
2026-05-06 06:16 39.90720 -84.22052 1012 ft 20 kts 235°
2026-05-06 06:16 39.90641 -84.22206 1010 ft 20 kts 238°
2026-05-06 06:16 39.90565 -84.22295 1010 ft 15 kts 179°
2026-05-06 06:16 39.90475 -84.22232 1012 ft 14 kts 146°
2026-05-06 06:17 39.90400 -84.22166 1013 ft 10 kts 145°
2026-05-06 06:17 39.90330 -84.22103 1013 ft 14 kts 144°
2026-05-06 06:17 39.90267 -84.22045 1013 ft 11 kts 144°
2026-05-06 06:17 39.90230 -84.22018 1013 ft 0 kts 171°
2026-05-06 06:18 39.90221 -84.22018 1013 ft 3 kts 180°
2026-05-06 06:18 39.90186 -84.22011 1013 ft 3 kts 163°
2026-05-06 06:18 39.90180 -84.22008 1013 ft 2 kts 155°
2026-05-06 06:18 39.90147 -84.21992 1013 ft 6 kts 164°
2026-05-06 06:19 39.90126 -84.21983 1013 ft 1 kts 166°
2026-05-06 06:19 39.90125 -84.21983 1013 ft 0 kts 166°
2026-05-06 06:19 39.90124 -84.21983 1013 ft 0 kts 166°